GIA72 YPPH-WADD

Flight info

Callsign GIA72
Flight time N/A
Altitude 37000
Route PH Y15 ESDEG/N0488F360 Q587 IGLUT/N0490F380 Q587 METUM R592 BLI
Aircraft B77W/H-SDE1E2E3FGHIJ2J3J4J5M1RWXY/LB1D1

Departure

Time N/A
Airport Perth International Airport (YPPH)

Arrival

Time 2026-05-05 18:11
Airport Denpasar I Gusti Ngurah Rai International Airport (WADD)
Time Latitude Longitude Altitude Speed Heading
2026-05-05 15:20 -31.23004 115.89667 20329 ft 440 kts 355°
2026-05-05 15:21 -31.19943 115.89401 21101 ft 444 kts 355°
2026-05-05 15:21 -31.16865 115.89133 21881 ft 448 kts 355°
2026-05-05 15:21 -31.13751 115.88863 22662 ft 451 kts 355°
2026-05-05 15:21 -31.10608 115.88590 23400 ft 455 kts 355°
2026-05-05 15:22 -31.07437 115.88316 24068 ft 459 kts 355°
2026-05-05 15:22 -31.04242 115.88039 24663 ft 465 kts 355°
2026-05-05 15:22 -31.00992 115.87757 25261 ft 470 kts 355°
2026-05-05 15:22 -30.97739 115.87476 25869 ft 474 kts 355°
2026-05-05 15:23 -30.94429 115.87189 26467 ft 479 kts 354°
2026-05-05 15:23 -30.91081 115.86900 27022 ft 484 kts 354°
2026-05-05 15:23 -30.87707 115.86610 27559 ft 489 kts 354°
2026-05-05 15:23 -30.84306 115.86316 28103 ft 494 kts 354°
2026-05-05 15:24 -30.80859 115.86158 28628 ft 500 kts
2026-05-05 15:24 -30.77377 115.86432 29168 ft 504 kts
2026-05-05 15:24 -30.73868 115.86794 29730 ft 508 kts
2026-05-05 15:24 -30.70350 115.87162 30451 ft 507 kts
2026-05-05 15:25 -30.66868 115.87526 31248 ft 504 kts
2026-05-05 15:25 -30.63383 115.87888 32016 ft 500 kts
2026-05-05 15:25 -30.59927 115.88247 32706 ft 498 kts
2026-05-05 15:25 -30.56496 115.88601 33306 ft 497 kts
2026-05-05 15:26 -30.53049 115.88957 33864 ft 496 kts
2026-05-05 15:26 -30.49592 115.89313 34365 ft 495 kts
2026-05-05 15:26 -30.46175 115.89664 34841 ft 494 kts
2026-05-05 15:26 -30.42758 115.90015 35259 ft 494 kts
2026-05-05 15:27 -30.39339 115.90366 35664 ft 494 kts
2026-05-05 15:27 -30.35934 115.90714 36090 ft 494 kts
2026-05-05 15:27 -30.32511 115.91065 36570 ft 493 kts
2026-05-05 15:27 -30.29107 115.91413 37039 ft 492 kts
2026-05-05 15:28 -30.25380 115.91794 37316 ft 494 kts
2026-05-05 15:28 -30.17279 115.92620 37310 ft 494 kts
2026-05-05 15:29 -30.09273 115.93436 37306 ft 493 kts
2026-05-05 15:29 -30.01236 115.94254 37305 ft 493 kts
2026-05-05 15:30 -29.93708 115.95019 37307 ft 493 kts
2026-05-05 15:30 -29.86887 115.95711 37303 ft 493 kts
2026-05-05 15:31 -29.80077 115.96401 37300 ft 492 kts
2026-05-05 15:31 -29.73256 115.97091 37295 ft 493 kts
2026-05-05 15:32 -29.66392 115.97784 37303 ft 494 kts
2026-05-05 15:32 -29.59240 115.98507 37302 ft 493 kts
2026-05-05 15:33 -29.52261 115.99210 37306 ft 494 kts
2026-05-05 15:33 -29.45429 115.99898 37305 ft 494 kts
2026-05-05 15:34 -29.38550 116.00589 37299 ft 494 kts
2026-05-05 15:34 -29.31718 116.01275 37303 ft 493 kts
2026-05-05 15:35 -29.24244 116.02024 37302 ft 493 kts
2026-05-05 15:35 -29.16254 116.02072 37299 ft 489 kts 352°
2026-05-05 15:36 -29.08213 116.01537 37305 ft 490 kts 352°
2026-05-05 15:36 -29.01568 116.01099 37304 ft 489 kts 352°
2026-05-05 15:37 -28.92293 116.00488 37306 ft 489 kts 352°
2026-05-05 15:37 -28.84174 115.99957 37300 ft 489 kts 352°
2026-05-05 15:38 -28.76187 115.99435 37292 ft 489 kts 352°
2026-05-05 15:38 -28.69002 115.98967 37298 ft 490 kts 352°
2026-05-05 15:39 -28.62206 115.98525 37288 ft 488 kts 352°
2026-05-05 15:39 -28.55376 115.98080 37286 ft 491 kts 352°
2026-05-05 15:40 -28.48570 115.97639 37276 ft 491 kts 352°
2026-05-05 15:40 -28.41758 115.97198 37275 ft 490 kts 352°
2026-05-05 15:41 -28.34944 115.96757 37278 ft 491 kts 352°
2026-05-05 15:41 -28.28005 115.96308 37271 ft 490 kts 352°
2026-05-05 15:42 -28.21211 115.95869 37250 ft 491 kts 352°
2026-05-05 15:42 -28.14374 115.95428 37265 ft 492 kts 352°
2026-05-05 15:43 -28.07528 115.94988 37265 ft 491 kts 352°
2026-05-05 15:43 -28.00714 115.94550 37254 ft 491 kts 352°
2026-05-05 15:44 -27.93902 115.94112 37253 ft 490 kts 352°
2026-05-05 15:44 -27.86013 115.93606 37259 ft 493 kts 352°
2026-05-05 15:45 -27.77979 115.93092 37246 ft 493 kts 352°
2026-05-05 15:45 -27.73951 115.92834 37404 ft 493 kts 352°
2026-05-05 15:45 -27.69999 115.92581 37249 ft 491 kts 352°
2026-05-05 15:46 -27.63068 115.92139 37245 ft 492 kts 352°
2026-05-05 15:46 -27.55928 115.91683 37240 ft 492 kts 352°
2026-05-05 15:47 -27.49086 115.91248 37239 ft 491 kts 352°
2026-05-05 15:47 -27.42191 115.90810 37237 ft 490 kts 352°
2026-05-05 15:48 -27.35341 115.90374 37233 ft 492 kts 352°
2026-05-05 15:48 -27.28500 115.89940 37237 ft 491 kts 351°
2026-05-05 15:49 -27.21626 115.89504 37237 ft 492 kts 351°
2026-05-05 15:49 -27.14779 115.89071 37243 ft 492 kts 351°
2026-05-05 15:50 -27.07925 115.88638 37261 ft 492 kts 351°
2026-05-05 15:50 -27.01077 115.88205 37256 ft 492 kts 351°
2026-05-05 15:51 -26.94243 115.87774 37247 ft 493 kts 351°
2026-05-05 15:51 -26.87379 115.87342 37230 ft 492 kts 351°
2026-05-05 15:52 -26.80534 115.86911 37224 ft 493 kts 351°
2026-05-05 15:52 -26.73643 115.86478 37226 ft 494 kts 351°
2026-05-05 15:53 -26.66755 115.86046 37222 ft 493 kts 351°
2026-05-05 15:53 -26.59903 115.85616 37218 ft 494 kts 351°
2026-05-05 15:54 -26.52975 115.85182 37223 ft 496 kts 351°
2026-05-05 15:54 -26.46118 115.84754 37222 ft 493 kts 351°
2026-05-05 15:55 -26.38247 115.84262 37221 ft 496 kts 351°
2026-05-05 15:55 -26.30196 115.83760 37213 ft 497 kts 351°
2026-05-05 15:56 -26.22050 115.83253 37217 ft 496 kts 351°
2026-05-05 15:56 -26.13958 115.82749 37218 ft 497 kts 351°
2026-05-05 15:57 -26.05863 115.82246 37210 ft 497 kts 350°
2026-05-05 15:57 -25.97855 115.81750 37214 ft 499 kts 351°
2026-05-05 15:58 -25.89909 115.81258 37208 ft 498 kts 350°
2026-05-05 15:58 -25.81766 115.80755 37203 ft 498 kts 350°
2026-05-05 15:59 -25.73646 115.80253 37196 ft 498 kts 350°
2026-05-05 15:59 -25.65499 115.79750 37202 ft 500 kts 350°
2026-05-05 16:00 -25.57330 115.79247 37194 ft 497 kts 349°
2026-05-05 16:00 -25.49109 115.78741 37198 ft 499 kts 349°
2026-05-05 16:01 -25.40877 115.78236 37193 ft 501 kts 349°
2026-05-05 16:01 -25.32528 115.77724 37189 ft 499 kts 349°
2026-05-05 16:02 -25.24283 115.77218 37187 ft 501 kts 349°
2026-05-05 16:02 -25.16156 115.76721 37169 ft 501 kts 349°
2026-05-05 16:03 -25.07838 115.76214 37180 ft 497 kts 349°
2026-05-05 16:03 -24.99655 115.75713 37172 ft 500 kts 349°
2026-05-05 16:04 -24.91485 115.75217 37165 ft 499 kts 348°
2026-05-05 16:04 -24.83296 115.74718 37161 ft 500 kts 348°
2026-05-05 16:05 -24.76307 115.74293 37162 ft 502 kts 348°
2026-05-05 16:05 -24.68579 115.73824 37163 ft 500 kts 348°
2026-05-05 16:06 -24.60415 115.73330 37155 ft 499 kts 347°
2026-05-05 16:06 -24.52182 115.72829 37151 ft 503 kts 348°
2026-05-05 16:07 -24.44394 115.72360 37149 ft 500 kts 347°
2026-05-05 16:07 -24.36779 115.71900 37155 ft 498 kts 347°
2026-05-05 16:08 -24.29284 115.71448 37157 ft 499 kts 347°
2026-05-05 16:08 -24.21100 115.70953 37149 ft 502 kts 347°
2026-05-05 16:09 -24.12924 115.70463 37155 ft 500 kts 347°
2026-05-05 16:09 -24.04539 115.69958 37161 ft 502 kts 347°
2026-05-05 16:10 -23.96298 115.69464 37154 ft 504 kts 346°
2026-05-05 16:10 -23.88142 115.68977 37140 ft 501 kts 346°
2026-05-05 16:11 -23.80005 115.68488 37139 ft 502 kts 346°
2026-05-05 16:12 -23.64572 115.67564 37130 ft 506 kts 346°
2026-05-05 16:13 -23.45811 115.66448 37128 ft 502 kts 346°
2026-05-05 16:13 -23.38823 115.66033 37123 ft 501 kts 346°
2026-05-05 16:14 -23.23513 115.65125 37115 ft 500 kts 346°
2026-05-05 16:15 -23.09447 115.64290 37111 ft 501 kts 346°
2026-05-05 16:16 -22.94195 115.63388 37108 ft 503 kts 345°
2026-05-05 16:17 -22.83496 115.62758 37097 ft 500 kts 345°
2026-05-05 16:18 -22.72233 115.62093 37093 ft 501 kts 345°
2026-05-05 16:19 -22.60280 115.61390 37083 ft 503 kts 346°
2026-05-05 16:19 -22.49767 115.60774 37076 ft 499 kts 346°
2026-05-05 16:20 -22.35841 115.59957 37070 ft 501 kts 346°
2026-05-05 16:22 -22.16515 115.58827 37070 ft 501 kts 346°
2026-05-05 16:23 -22.01345 115.57942 37068 ft 501 kts 346°
2026-05-05 16:23 -21.90904 115.57334 37066 ft 503 kts 346°
2026-05-05 16:24 -21.83257 115.56890 37056 ft 500 kts 346°
2026-05-05 16:25 -21.72141 115.56243 37060 ft 503 kts 346°
2026-05-05 16:25 -21.61714 115.55641 37057 ft 498 kts 346°
2026-05-05 16:26 -21.47187 115.54800 37052 ft 502 kts 346°
2026-05-05 16:27 -21.39482 115.54355 37046 ft 499 kts 346°
2026-05-05 16:27 -21.32248 115.53936 37049 ft 502 kts 347°
2026-05-05 16:28 -21.25275 115.53534 37042 ft 502 kts 347°
2026-05-05 16:28 -21.18292 115.53131 37045 ft 503 kts 347°
2026-05-05 16:29 -21.11324 115.52731 37048 ft 501 kts 347°
2026-05-05 16:29 -21.04356 115.52330 37046 ft 501 kts 347°
2026-05-05 16:30 -20.97382 115.51929 37046 ft 502 kts 347°
2026-05-05 16:30 -20.90134 115.51513 37045 ft 501 kts 347°
2026-05-05 16:31 -20.81914 115.51041 37036 ft 502 kts 347°
2026-05-05 16:31 -20.74326 115.50607 37031 ft 503 kts 347°
2026-05-05 16:32 -20.67364 115.50209 37029 ft 502 kts 347°
2026-05-05 16:32 -20.60351 115.49808 37026 ft 502 kts 347°
2026-05-05 16:33 -20.53379 115.49410 37025 ft 501 kts 347°
2026-05-05 16:33 -20.46405 115.49011 37020 ft 502 kts 347°
2026-05-05 16:34 -20.39410 115.48612 37020 ft 504 kts 347°
2026-05-05 16:34 -20.32411 115.48214 37019 ft 502 kts 347°
2026-05-05 16:35 -20.25381 115.47813 37014 ft 504 kts 347°
2026-05-05 16:35 -20.18399 115.47417 37021 ft 501 kts 347°
2026-05-05 16:36 -20.11413 115.47020 37019 ft 502 kts 347°
2026-05-05 16:36 -20.04445 115.46624 37018 ft 503 kts 347°
2026-05-05 16:37 -19.97420 115.46227 37016 ft 502 kts 347°
2026-05-05 16:37 -19.90463 115.45831 37014 ft 502 kts 347°
2026-05-05 16:38 -19.83447 115.45435 37010 ft 504 kts 347°
2026-05-05 16:38 -19.76443 115.45039 37007 ft 502 kts 347°
2026-05-05 16:39 -19.69446 115.44643 37008 ft 504 kts 347°
2026-05-05 16:39 -19.62465 115.44248 37006 ft 504 kts 347°
2026-05-05 16:40 -19.55416 115.43851 37009 ft 502 kts 347°
2026-05-05 16:40 -19.48405 115.43456 37008 ft 504 kts 347°
2026-05-05 16:41 -19.41394 115.43061 37005 ft 504 kts 347°
2026-05-05 16:41 -19.34367 115.42665 37000 ft 506 kts 348°
2026-05-05 16:42 -19.27373 115.42273 36996 ft 505 kts 348°
2026-05-05 16:42 -19.20347 115.41878 37000 ft 505 kts 348°
2026-05-05 16:43 -19.13333 115.41486 36999 ft 504 kts 348°
2026-05-05 16:43 -19.06279 115.41090 36998 ft 503 kts 348°
2026-05-05 16:44 -18.99317 115.40698 37000 ft 507 kts 348°
2026-05-05 16:44 -18.92274 115.40305 36997 ft 503 kts 348°
2026-05-05 16:45 -18.85265 115.39912 36989 ft 504 kts 348°
2026-05-05 16:45 -18.78253 115.39520 36987 ft 506 kts 348°
2026-05-05 16:46 -18.71215 115.39128 36987 ft 504 kts 348°
2026-05-05 16:46 -18.64183 115.38736 36986 ft 504 kts 348°
2026-05-05 16:47 -18.57161 115.38344 36984 ft 506 kts 348°
2026-05-05 16:47 -18.50093 115.37951 36980 ft 505 kts 348°
2026-05-05 16:48 -18.43095 115.37561 36980 ft 505 kts 348°
2026-05-05 16:48 -18.36058 115.37170 36983 ft 506 kts 348°
2026-05-05 16:49 -18.29051 115.36781 36984 ft 505 kts 348°
2026-05-05 16:49 -18.22018 115.36391 36980 ft 505 kts 348°
2026-05-05 16:50 -18.14990 115.36001 36984 ft 507 kts 348°
2026-05-05 16:50 -18.07925 115.35609 36984 ft 505 kts 348°
2026-05-05 16:51 -18.00885 115.35220 36984 ft 506 kts 348°
2026-05-05 16:51 -17.93880 115.34833 37004 ft 504 kts 348°
2026-05-05 16:52 -17.86813 115.34441 36995 ft 507 kts 349°
2026-05-05 16:52 -17.79788 115.34053 36997 ft 507 kts 349°
2026-05-05 16:53 -17.72757 115.33665 36995 ft 505 kts 349°
2026-05-05 16:53 -17.65704 115.33276 36995 ft 506 kts 349°
2026-05-05 16:54 -17.58657 115.32889 36994 ft 504 kts 349°
2026-05-05 16:54 -17.51660 115.32503 36994 ft 505 kts 349°
2026-05-05 16:55 -17.44642 115.32116 36996 ft 507 kts 349°
2026-05-05 16:55 -17.37556 115.31727 36989 ft 506 kts 349°
2026-05-05 16:56 -17.30544 115.31342 36984 ft 504 kts 349°
2026-05-05 16:56 -17.23271 115.30943 36985 ft 506 kts 349°
2026-05-05 16:57 -17.15734 115.30529 36982 ft 505 kts 349°
2026-05-05 16:57 -17.08629 115.30140 36983 ft 505 kts 349°
2026-05-05 16:58 -17.01596 115.29754 36981 ft 506 kts 349°
2026-05-05 16:58 -16.94589 115.29372 36979 ft 503 kts 349°
2026-05-05 16:59 -16.87505 115.28983 36973 ft 505 kts 349°
2026-05-05 16:59 -16.80493 115.28601 36974 ft 506 kts 349°
2026-05-05 17:00 -16.73479 115.28218 36973 ft 505 kts 349°
2026-05-05 17:00 -16.66445 115.27834 36975 ft 504 kts 349°
2026-05-05 17:01 -16.59418 115.27451 36977 ft 505 kts 349°
2026-05-05 17:01 -16.52418 115.27070 36975 ft 505 kts 349°
2026-05-05 17:02 -16.45376 115.26686 36977 ft 506 kts 349°
2026-05-05 17:02 -16.38352 115.26304 36979 ft 506 kts 349°
2026-05-05 17:03 -16.31324 115.25922 36976 ft 505 kts 350°
2026-05-05 17:03 -16.24277 115.25539 36977 ft 505 kts 350°
2026-05-05 17:04 -16.17158 115.25153 36977 ft 505 kts 350°
2026-05-05 17:04 -16.10161 115.24773 36978 ft 505 kts 350°
2026-05-05 17:05 -16.03157 115.24394 36975 ft 502 kts 350°
2026-05-05 17:05 -15.96129 115.24013 36973 ft 505 kts 350°
2026-05-05 17:06 -15.89115 115.23633 36974 ft 506 kts 350°
2026-05-05 17:06 -15.82063 115.23251 36967 ft 508 kts 350°
2026-05-05 17:07 -15.75036 115.22872 36966 ft 506 kts 350°
2026-05-05 17:07 -15.68019 115.22493 36962 ft 504 kts 350°
2026-05-05 17:08 -15.60996 115.22114 36957 ft 504 kts 351°
2026-05-05 17:08 -15.53941 115.21733 36955 ft 505 kts 350°
2026-05-05 17:09 -15.46925 115.21355 36953 ft 503 kts 350°
2026-05-05 17:09 -15.39927 115.20978 36954 ft 504 kts 351°
2026-05-05 17:10 -15.32934 115.20602 36954 ft 504 kts 351°
2026-05-05 17:10 -15.25900 115.20223 36956 ft 506 kts 351°
2026-05-05 17:11 -15.18900 115.19847 36955 ft 503 kts 351°
2026-05-05 17:11 -15.11868 115.19469 36956 ft 505 kts 351°
2026-05-05 17:12 -15.04871 115.19094 36957 ft 504 kts 351°
2026-05-05 17:12 -14.97852 115.18716 36957 ft 504 kts 351°
2026-05-05 17:13 -14.90830 115.18340 36956 ft 504 kts 351°
2026-05-05 17:13 -14.83820 115.17965 36948 ft 502 kts 351°
2026-05-05 17:14 -14.76816 115.17589 36946 ft 505 kts 351°
2026-05-05 17:14 -14.69815 115.17215 36944 ft 503 kts 351°
2026-05-05 17:15 -14.62786 115.16839 36947 ft 504 kts 351°
2026-05-05 17:15 -14.55766 115.16464 36943 ft 505 kts 352°
2026-05-05 17:16 -14.48745 115.16088 36942 ft 503 kts 352°
2026-05-05 17:16 -14.41772 115.15716 36941 ft 505 kts 351°
2026-05-05 17:17 -14.34735 115.15340 36939 ft 503 kts 352°
2026-05-05 17:17 -14.27723 115.14967 36937 ft 504 kts 352°
2026-05-05 17:18 -14.20725 115.14593 36938 ft 505 kts 352°
2026-05-05 17:18 -14.13699 115.14219 36938 ft 505 kts 352°
2026-05-05 17:19 -14.06638 115.14165 36937 ft 507 kts 356°
2026-05-05 17:19 -13.99534 115.14226 36935 ft 507 kts 355°
2026-05-05 17:20 -13.92504 115.14273 36935 ft 506 kts 355°
2026-05-05 17:20 -13.85255 115.14311 36929 ft 505 kts 355°
2026-05-05 17:21 -13.77832 115.14346 36929 ft 505 kts 355°
2026-05-05 17:22 -13.67296 115.14388 36931 ft 506 kts 355°
2026-05-05 17:22 -13.60248 115.14416 36928 ft 505 kts 355°
2026-05-05 17:23 -13.53205 115.14442 36929 ft 506 kts 355°
2026-05-05 17:23 -13.46141 115.14468 36930 ft 505 kts 355°
2026-05-05 17:24 -13.39101 115.14494 36927 ft 505 kts 355°
2026-05-05 17:24 -13.32085 115.14520 36922 ft 505 kts 355°
2026-05-05 17:25 -13.25051 115.14546 36918 ft 504 kts 356°
2026-05-05 17:25 -13.18024 115.14572 36916 ft 504 kts 356°
2026-05-05 17:26 -13.10986 115.14598 36914 ft 502 kts 355°
2026-05-05 17:26 -13.03997 115.14624 36912 ft 502 kts 356°
2026-05-05 17:27 -12.96971 115.14649 36914 ft 504 kts 356°
2026-05-05 17:27 -12.89943 115.14675 36914 ft 504 kts 356°
2026-05-05 17:28 -12.82938 115.14700 36909 ft 504 kts 356°
2026-05-05 17:28 -12.75924 115.14726 36910 ft 504 kts 356°
2026-05-05 17:29 -12.68912 115.14752 36913 ft 503 kts 356°
2026-05-05 17:29 -12.61877 115.14778 36917 ft 502 kts 356°
2026-05-05 17:30 -12.54895 115.14803 36920 ft 502 kts 356°
2026-05-05 17:30 -12.47903 115.14829 36922 ft 501 kts 356°
2026-05-05 17:31 -12.40907 115.14854 36532 ft 504 kts 356°
2026-05-05 17:31 -12.37404 115.14866 36160 ft 503 kts 356°
2026-05-05 17:31 -12.33876 115.14879 35779 ft 502 kts 356°
2026-05-05 17:31 -12.30386 115.14892 35407 ft 502 kts 356°
2026-05-05 17:32 -12.26903 115.14904 35035 ft 502 kts 356°
2026-05-05 17:32 -12.23397 115.14917 34662 ft 503 kts 356°
2026-05-05 17:32 -12.19898 115.14929 34295 ft 506 kts 356°
2026-05-05 17:32 -12.16628 115.14941 33951 ft 506 kts 356°
2026-05-05 17:33 -12.13125 115.14954 33588 ft 507 kts 356°
2026-05-05 17:33 -12.09558 115.14967 33218 ft 506 kts 356°
2026-05-05 17:33 -12.05969 115.14980 32849 ft 507 kts 356°
2026-05-05 17:33 -12.02295 115.14994 32476 ft 506 kts 356°
2026-05-05 17:34 -11.98746 115.15006 32139 ft 509 kts 356°
2026-05-05 17:34 -11.95167 115.15021 31798 ft 510 kts 356°
2026-05-05 17:34 -11.91621 115.15036 31465 ft 510 kts 356°
2026-05-05 17:34 -11.88087 115.15050 31198 ft 511 kts 356°
2026-05-05 17:35 -11.84497 115.15066 30935 ft 509 kts 356°
2026-05-05 17:35 -11.80969 115.15081 30673 ft 507 kts 356°
2026-05-05 17:35 -11.77461 115.15096 30419 ft 505 kts 356°
2026-05-05 17:35 -11.73962 115.15111 30162 ft 503 kts 356°
2026-05-05 17:36 -11.70417 115.15126 29902 ft 503 kts 356°
2026-05-05 17:36 -11.66909 115.15140 29646 ft 501 kts 356°
2026-05-05 17:36 -11.63441 115.15155 29393 ft 501 kts 356°
2026-05-05 17:36 -11.59948 115.15170 29139 ft 499 kts 356°
2026-05-05 17:37 -11.56472 115.15184 28885 ft 497 kts 356°
2026-05-05 17:37 -11.54165 115.15193 28716 ft 496 kts 356°
2026-05-05 17:37 -11.49560 115.15212 28388 ft 493 kts 356°
2026-05-05 17:37 -11.46135 115.15227 28149 ft 492 kts 356°
2026-05-05 17:38 -11.42726 115.15241 27908 ft 490 kts 357°
2026-05-05 17:38 -11.39316 115.15255 27669 ft 487 kts 357°
2026-05-05 17:38 -11.35882 115.15269 27428 ft 485 kts 357°
2026-05-05 17:38 -11.32540 115.15283 27192 ft 483 kts 357°
2026-05-05 17:39 -11.29180 115.15297 26952 ft 480 kts 357°
2026-05-05 17:39 -11.25833 115.15311 26712 ft 478 kts 357°
2026-05-05 17:39 -11.22508 115.15324 26473 ft 475 kts 357°
2026-05-05 17:39 -11.19208 115.15338 26232 ft 473 kts 358°
2026-05-05 17:40 -11.15889 115.15353 25947 ft 471 kts 358°
2026-05-05 17:40 -11.12628 115.15366 25641 ft 468 kts 358°
2026-05-05 17:40 -11.09383 115.15380 25328 ft 464 kts 358°
2026-05-05 17:40 -11.06162 115.15394 25013 ft 460 kts 358°
2026-05-05 17:41 -11.02979 115.15408 24699 ft 457 kts 358°
2026-05-05 17:41 -10.99793 115.15421 24381 ft 453 kts 358°
2026-05-05 17:41 -10.96659 115.15434 24068 ft 450 kts 358°
2026-05-05 17:41 -10.93525 115.15447 23749 ft 447 kts 358°
2026-05-05 17:42 -10.90414 115.15461 23435 ft 444 kts 359°
2026-05-05 17:42 -10.87340 115.15474 23127 ft 440 kts 359°
2026-05-05 17:42 -10.84276 115.15486 22819 ft 436 kts 359°
2026-05-05 17:42 -10.81272 115.15499 22515 ft 433 kts 359°
2026-05-05 17:43 -10.78223 115.15512 22204 ft 431 kts 359°
2026-05-05 17:43 -10.75248 115.15525 21915 ft 429 kts 359°
2026-05-05 17:43 -10.72267 115.15537 21628 ft 428 kts 359°
2026-05-05 17:43 -10.69275 115.15550 21365 ft 426 kts 359°
2026-05-05 17:44 -10.66300 115.15337 21133 ft 425 kts 351°
2026-05-05 17:44 -10.63399 115.14884 20916 ft 425 kts 350°
2026-05-05 17:44 -10.60455 115.14404 20688 ft 423 kts 350°
2026-05-05 17:44 -10.57553 115.13931 20463 ft 422 kts 350°
2026-05-05 17:45 -10.54654 115.13460 20242 ft 421 kts 350°
2026-05-05 17:45 -10.51788 115.12994 20018 ft 420 kts 350°
2026-05-05 17:45 -10.48899 115.12524 19791 ft 418 kts 350°
2026-05-05 17:45 -10.46017 115.12057 19567 ft 417 kts 350°
2026-05-05 17:46 -10.43150 115.11592 19340 ft 417 kts 350°
2026-05-05 17:46 -10.40279 115.11127 19112 ft 415 kts 350°
2026-05-05 17:46 -10.37418 115.10663 18885 ft 414 kts 350°
2026-05-05 17:46 -10.34557 115.10200 18655 ft 413 kts 350°
2026-05-05 17:47 -10.31744 115.09744 18429 ft 412 kts 350°
2026-05-05 17:47 -10.28913 115.09286 18202 ft 410 kts 350°
2026-05-05 17:47 -10.26060 115.08824 17971 ft 409 kts 350°
2026-05-05 17:47 -10.23267 115.08372 17742 ft 408 kts 350°
2026-05-05 17:48 -10.20439 115.07914 17511 ft 408 kts 350°
2026-05-05 17:48 -10.17634 115.07460 17281 ft 408 kts 350°
2026-05-05 17:48 -10.14826 115.07006 17047 ft 407 kts 350°
2026-05-05 17:48 -10.12022 115.06553 16814 ft 406 kts 350°
2026-05-05 17:49 -10.09230 115.06101 16580 ft 404 kts 350°
2026-05-05 17:49 -10.06459 115.05653 16347 ft 403 kts 350°
2026-05-05 17:49 -10.03679 115.05204 16113 ft 402 kts 350°
2026-05-05 17:49 -10.00930 115.04760 15880 ft 400 kts 350°
2026-05-05 17:50 -9.98156 115.04311 15646 ft 399 kts 350°
2026-05-05 17:50 -9.95412 115.03861 15412 ft 398 kts 350°
2026-05-05 17:50 -9.92680 115.03413 15180 ft 398 kts 350°
2026-05-05 17:50 -9.89973 115.02970 14947 ft 390 kts 350°
2026-05-05 17:51 -9.87328 115.02537 14717 ft 379 kts 351°
2026-05-05 17:51 -9.84728 115.02110 14478 ft 369 kts 351°
2026-05-05 17:51 -9.82235 115.01702 14151 ft 363 kts 351°
2026-05-05 17:51 -9.79732 115.01292 13800 ft 358 kts 351°
2026-05-05 17:52 -9.77282 115.00892 13446 ft 354 kts 351°
2026-05-05 17:52 -9.74865 115.00497 13094 ft 353 kts 351°
2026-05-05 17:52 -9.72422 115.00098 12736 ft 351 kts 351°
2026-05-05 17:52 -9.70041 114.99708 12385 ft 348 kts 351°
2026-05-05 17:53 -9.67639 114.99315 12029 ft 346 kts 351°
2026-05-05 17:53 -9.65252 114.98925 11675 ft 344 kts 352°
2026-05-05 17:53 -9.62885 114.98538 11320 ft 342 kts 352°
2026-05-05 17:53 -9.60558 114.98158 10969 ft 340 kts 352°
2026-05-05 17:54 -9.58203 114.97773 10611 ft 338 kts 352°
2026-05-05 17:54 -9.55898 114.97397 10261 ft 335 kts 352°
2026-05-05 17:54 -9.53604 114.97022 9907 ft 333 kts 352°
2026-05-05 17:54 -9.51303 114.96646 9552 ft 331 kts 353°
2026-05-05 17:55 -9.49025 114.96275 9200 ft 330 kts 353°
2026-05-05 17:55 -9.46765 114.95906 8850 ft 328 kts 352°
2026-05-05 17:55 -9.44519 114.95539 8496 ft 326 kts 353°
2026-05-05 17:55 -9.42282 114.95174 8143 ft 323 kts 353°
2026-05-05 17:56 -9.40034 114.94807 7785 ft 322 kts 353°
2026-05-05 17:56 -9.37819 114.94568 7429 ft 318 kts 358°
2026-05-05 17:56 -9.35626 114.94450 7076 ft 315 kts 359°
2026-05-05 17:56 -9.33433 114.94345 6720 ft 312 kts 359°
2026-05-05 17:57 -9.31283 114.94239 6407 ft 307 kts 359°
2026-05-05 17:57 -9.29163 114.94131 6165 ft 301 kts 359°
2026-05-05 17:57 -9.27075 114.94024 5924 ft 294 kts 359°
2026-05-05 17:57 -9.25056 114.93920 5687 ft 288 kts 359°
2026-05-05 17:58 -9.23074 114.93818 5450 ft 283 kts 359°
2026-05-05 17:58 -9.21120 114.93718 5212 ft 277 kts 360°
2026-05-05 17:58 -9.19201 114.93619 4976 ft 273 kts
2026-05-05 17:58 -9.17295 114.93521 4736 ft 269 kts
2026-05-05 17:59 -9.15434 114.93426 4498 ft 265 kts
2026-05-05 17:59 -9.13603 114.93332 4261 ft 261 kts
2026-05-05 17:59 -9.11806 114.93240 4035 ft 257 kts
2026-05-05 17:59 -9.10035 114.93148 3971 ft 246 kts
2026-05-05 18:00 -9.08379 114.93062 3968 ft 233 kts
2026-05-05 18:00 -9.06765 114.92980 3897 ft 230 kts
2026-05-05 18:00 -9.05167 114.92899 3658 ft 230 kts
2026-05-05 18:00 -9.03557 114.92807 3352 ft 231 kts
2026-05-05 18:01 -9.01938 114.92705 3055 ft 232 kts
2026-05-05 18:01 -9.00358 114.92606 2979 ft 224 kts
2026-05-05 18:01 -8.98778 114.92510 2972 ft 224 kts
2026-05-05 18:01 -8.97230 114.92416 2971 ft 224 kts
2026-05-05 18:02 -8.95665 114.92322 2971 ft 225 kts
2026-05-05 18:02 -8.94087 114.92225 2973 ft 225 kts
2026-05-05 18:02 -8.92503 114.92129 2972 ft 226 kts
2026-05-05 18:02 -8.90941 114.92033 2970 ft 226 kts 360°
2026-05-05 18:03 -8.89360 114.91936 2969 ft 226 kts 359°
2026-05-05 18:03 -8.87784 114.91839 2968 ft 226 kts 360°
2026-05-05 18:03 -8.86214 114.91743 2968 ft 225 kts 359°
2026-05-05 18:03 -8.84633 114.91647 2970 ft 226 kts 360°
2026-05-05 18:04 -8.83057 114.91551 2968 ft 225 kts 359°
2026-05-05 18:04 -8.81487 114.91455 2969 ft 226 kts 360°
2026-05-05 18:04 -8.79931 114.91359 2973 ft 216 kts 359°
2026-05-05 18:04 -8.78500 114.91348 2959 ft 197 kts 13°
2026-05-05 18:05 -8.77235 114.91813 2963 ft 189 kts 35°
2026-05-05 18:05 -8.76285 114.92687 2958 ft 185 kts 56°
2026-05-05 18:05 -8.75707 114.93863 2818 ft 184 kts 76°
2026-05-05 18:05 -8.75562 114.95116 2642 ft 179 kts 88°
2026-05-05 18:06 -8.75512 114.96364 2492 ft 176 kts 90°
2026-05-05 18:06 -8.75507 114.96785 2485 ft 176 kts 90°
2026-05-05 18:06 -8.75514 114.98863 2466 ft 177 kts 91°
2026-05-05 18:06 -8.75505 115.00114 2407 ft 179 kts 89°
2026-05-05 18:07 -8.75446 115.01334 2244 ft 170 kts 88°
2026-05-05 18:07 -8.75396 115.02471 2060 ft 157 kts 89°
2026-05-05 18:07 -8.75353 115.03559 1890 ft 155 kts 89°
2026-05-05 18:07 -8.75328 115.04683 1699 ft 154 kts 90°
2026-05-05 18:08 -8.75315 115.05785 1632 ft 156 kts 89°
2026-05-05 18:08 -8.75260 115.06879 1544 ft 156 kts 86°
2026-05-05 18:08 -8.75181 115.07940 1482 ft 143 kts 85°
2026-05-05 18:08 -8.75082 115.08962 1303 ft 150 kts 86°
2026-05-05 18:09 -8.75026 115.10018 1180 ft 151 kts 90°
2026-05-05 18:09 -8.75044 115.11086 948 ft 150 kts 91°
2026-05-05 18:09 -8.75019 115.12125 627 ft 144 kts 89°
2026-05-05 18:09 -8.74977 115.13131 415 ft 144 kts 89°
2026-05-05 18:10 -8.74933 115.14133 257 ft 144 kts 90°
2026-05-05 18:10 -8.74900 115.15138 116 ft 145 kts 90°
2026-05-05 18:10 -8.74866 115.16124 23 ft 127 kts 88°
2026-05-05 18:10 -8.74836 115.16869 24 ft 82 kts 88°
2026-05-05 18:11 -8.74823 115.17178 24 ft 17 kts 88°
2026-05-05 18:11 -8.74816 115.17278 24 ft 12 kts 71°
2026-05-05 18:11 -8.74752 115.17309 25 ft 11 kts
2026-05-05 18:11 -8.74676 115.17300 27 ft 9 kts 326°
2026-05-05 18:12 -8.74656 115.17220 26 ft 15 kts 266°
2026-05-05 18:12 -8.74661 115.17094 24 ft 19 kts 268°
2026-05-05 18:12 -8.74667 115.16944 25 ft 22 kts 267°
2026-05-05 18:12 -8.74673 115.16791 27 ft 20 kts 268°
2026-05-05 18:13 -8.74678 115.16672 27 ft 8 kts 268°
2026-05-05 18:13 -8.74672 115.16628 27 ft 4 kts 302°
2026-05-05 18:13 -8.74635 115.16610 28 ft 6 kts 349°
2026-05-05 18:13 -8.74594 115.16606 29 ft 3 kts 356°
2026-05-05 18:14 -8.74574 115.16605 30 ft 1 kts 357°
2026-05-05 18:14 -8.74562 115.16604 30 ft 1 kts 357°
2026-05-05 18:14 -8.74560 115.16604 30 ft 0 kts 357°